{"data":{"norad_id":58298,"epoch":"2026-09-21T22:34:58.866240Z","epoch_age_seconds":117533,"freshness":"FRESH","line1":"1 58298U 23174AU  26264.94095910  .00002915  00000+0  10819-3 0  9994","line2":"2 58298  97.3773 340.5336 0008754 193.7035 166.3969 15.28350640159555","mean_motion":15.2835064,"eccentricity":0.0008754,"inclination_deg":97.3773,"raan_deg":340.5336,"arg_perigee_deg":193.7035,"mean_anomaly_deg":166.3969,"bstar":0.00010819,"rev_number":15955,"period_min":94.219216605948,"perigee_km":474.73822921293,"apogee_km":486.74675542808,"semimajor_km":6858.8794923205,"source":"CELESTRAK","updated_at":"2026-09-22T09:00:26.579958Z"}}